K6OUA-11 Weather Reports


Display with metric or nautical units.
time (UTC)temp
F
wind
direction
speed
MPH
gust
MPH
rain 1hr
in
rain 24hr
in
rain mn
in
humidity
%
barometer
mb
20180524113645 56 90 0.0 1.0 0.00 0.00 0.00 85 1010.1
20180524113044 56 90 0.0 0.0 0.00 0.00 0.00 85 1010.2
20180524112604 56 90 0.0 1.0 0.00 0.00 0.00 85 1010.2
20180524112441 56 90 0.0 1.0 0.00 0.00 0.00 85 1010.2
20180524112139 56 171 0.0 1.0 0.00 0.00 0.00 85 1010.3
20180524111838 56 90 0.0 1.0 0.00 0.00 0.00 85 1010.3
20180524111414 56 143 1.0 2.0 0.00 0.00 0.00 85 1010.1
20180524111237 56 143 1.0 2.0 0.00 0.00 0.00 85 1010.1
20180524110934 56 101 1.0 2.0 0.00 0.00 0.00 85 1010.3
20180524110800 56 135 1.0 2.0 0.00 0.00 0.00 85 1010.4
20180524110634 56 135 1.0 2.0 0.00 0.00 0.00 85 1010.4
20180524105730 56 222 0.0 1.0 0.00 0.00 0.00 85 1010.3
20180524105429 56 27 1.0 1.0 0.00 0.00 0.00 85 1010.3
20180524104832 56 225 0.0 0.0 0.00 0.00 0.00 85 1010.4
20180524104527 56 247 0.0 0.0 0.00 0.00 0.00 85 1010.5
20180524104224 56 247 0.0 0.0 0.00 0.00 0.00 85 1010.4
20180524103843 56 247 0.0 0.0 0.00 0.00 0.00 85 1010.4
20180524103623 56 247 0.0 0.0 0.00 0.00 0.00 85 1010.4
20180524103321 56 247 0.0 0.0 0.00 0.00 0.00 85 1010.4
20180524103022 56 247 0.0 0.0 0.00 0.00 0.00 85 1010.3
20180524102721 56 247 0.0 0.0 0.00 0.00 0.00 85 1010.4
20180524102650 56 247 0.0 0.0 0.00 0.00 0.00 85 1010.5
20180524102419 56 247 0.0 0.0 0.00 0.00 0.00 85 1010.5
20180524102118 56 247 0.0 0.0 0.00 0.00 0.00 86 1010.5
20180524101815 56 270 0.0 0.0 0.00 0.00 0.00 85 1010.3
20180524101356 56 270 0.0 0.0 0.00 0.00 0.00 85 1010.3
20180524101214 56 270 0.0 0.0 0.00 0.00 0.00 85 1010.3
20180524100912 55 270 0.0 0.0 0.00 0.00 0.00 85 1010.4
20180524100615 55 270 0.0 0.0 0.00 0.00 0.00 85 1010.4
20180524095708 55 270 0.0 0.0 0.00 0.00 0.00 86 1010.4
20180524095506 55 270 0.0 1.0 0.00 0.00 0.00 85 1010.4
20180524095408 55 270 0.0 1.0 0.00 0.00 0.00 85 1010.4
20180524095247 55 270 0.0 0.0 0.00 0.00 0.00 86 1010.4
20180524095110 55 270 0.0 0.0 0.00 0.00 0.00 86 1010.4
20180524095108 55 270 0.0 0.0 0.00 0.00 0.00 86 1010.4
20180524095034 55 270 0.0 1.0 0.00 0.00 0.00 85 1010.3
20180524094806 55 270 0.0 1.0 0.00 0.00 0.00 85 1010.3
20180524094804 55 270 0.0 1.0 0.00 0.00 0.00 85 1010.3
20180524094622 55 225 0.0 1.0 0.00 0.00 0.00 85 1010.5
20180524094505 55 225 0.0 1.0 0.00 0.00 0.00 85 1010.5
20180524094503 55 225 0.0 1.0 0.00 0.00 0.00 85 1010.5
20180524094205 55 225 0.0 0.0 0.00 0.00 0.00 86 1010.5
20180524093904 55 225 0.0 0.0 0.00 0.00 0.00 85 1010.5
20180524093602 55 225 0.0 0.0 0.00 0.00 0.00 85 1010.6
20180524093301 55 207 0.0 1.0 0.00 0.00 0.00 85 1010.5
20180524092056 55 249 0.0 1.0 0.00 0.00 0.00 85 1010.3
20180524091755 55 270 0.0 2.0 0.00 0.00 0.00 86 1010.4
20180524091629 55 225 0.0 0.0 0.00 0.00 0.00 85 1010.4
20180524091453 55 225 0.0 0.0 0.00 0.00 0.00 85 1010.4
20180524091153 55 225 0.0 0.0 0.00 0.00 0.00 85 1010.5
20180524091025 55 225 0.0 0.0 0.00 0.00 0.00 85 1010.5
20180524090851 55 225 0.0 0.0 0.00 0.00 0.00 85 1010.5
20180524090250 55 225 0.0 0.0 0.00 0.00 0.00 85 1010.4
20180524090129 55 45 0.0 0.0 0.00 0.00 0.00 85 1010.4
20180524085948 55 45 0.0 0.0 0.00 0.00 0.00 85 1010.4
20180524085344 55 45 0.0 0.0 0.00 0.00 0.00 86 1010.5
20180524085043 55 45 0.0 0.0 0.00 0.00 0.00 85 1010.6
20180524084742 55 45 0.0 0.0 0.00 0.00 0.00 86 1010.4
20180524084443 55 45 0.0 0.0 0.00 0.00 0.00 86 1010.4
20180524084247 55 45 0.0 1.0 0.00 0.00 0.00 85 1010.3
20180524084141 55 45 0.0 1.0 0.00 0.00 0.00 85 1010.3
20180524083841 55 45 1.0 1.0 0.00 0.00 0.00 86 1010.4
20180524083234 55 45 0.0 0.0 0.00 0.00 0.00 86 1010.3
20180524082931 55 45 0.0 0.0 0.00 0.00 0.00 86 1010.5
20180524082629 55 45 0.0 0.0 0.00 0.00 0.00 86 1010.5
20180524082330 55 45 0.0 0.0 0.00 0.00 0.00 86 1010.5
20180524082027 55 45 0.0 1.0 0.00 0.00 0.00 86 1010.4
20180524082004 55 45 0.0 1.0 0.00 0.00 0.00 86 1010.6
20180524081730 55 45 0.0 1.0 0.00 0.00 0.00 86 1010.6
20180524081728 55 45 0.0 1.0 0.00 0.00 0.00 86 1010.6
20180524081425 55 67 0.0 1.0 0.00 0.00 0.00 86 1010.4
20180524081124 55 67 0.0 1.0 0.00 0.00 0.00 86 1010.5
20180524080823 55 67 0.0 1.0 0.00 0.00 0.00 85 1010.6
20180524080522 55 45 0.0 1.0 0.00 0.00 0.00 85 1010.6
20180524080223 55 67 0.0 1.0 0.00 0.00 0.00 86 1010.6
20180524075921 55 90 1.0 1.0 0.00 0.00 0.00 85 1010.6
20180524075620 55 90 0.0 1.0 0.00 0.00 0.00 85 1010.5
20180524075317 55 84 1.0 1.0 0.00 0.00 0.00 86 1010.5
20180524075018 55 315 0.0 2.0 0.00 0.00 0.00 86 1010.5
20180524074717 55 225 0.0 3.0 0.00 0.00 0.00 86 1010.5
20180524074415 55 348 3.0 3.0 0.00 0.00 0.00 86 1010.5
20180524074259 55 45 0.0 3.0 0.00 0.00 0.00 86 1010.6
20180524074114 55 45 0.0 3.0 0.00 0.00 0.00 86 1010.6
20180524073812 55 180 0.0 4.0 0.00 0.00 0.00 86 1010.5
20180524073513 55 8 2.0 3.0 0.00 0.00 0.00 86 1010.5
20180524073342 55 96 1.0 2.0 0.00 0.00 0.00 85 1010.7
20180524073211 55 96 1.0 2.0 0.00 0.00 0.00 85 1010.7
20180524072908 55 135 0.0 1.0 0.00 0.00 0.00 86 1010.6
20180524072609 55 180 0.0 0.0 0.00 0.00 0.00 85 1010.7
20180524072453 55 180 1.0 1.0 0.00 0.00 0.00 86 1010.6
20180524072307 55 180 1.0 1.0 0.00 0.00 0.00 86 1010.6
20180524072009 55 135 0.0 1.0 0.00 0.00 0.00 85 1010.6
20180524071930 55 225 0.0 1.0 0.00 0.00 0.00 86 1010.7
20180524071704 55 225 0.0 1.0 0.00 0.00 0.00 86 1010.7
20180524071404 55 225 0.0 1.0 0.00 0.00 0.00 85 1010.6
20180524071102 55 135 0.0 1.0 0.00 0.00 0.00 86 1010.6
20180524070455 55 213 0.0 1.0 0.00 0.00 0.00 85 1010.6
20180524070155 55 225 0.0 0.0 0.00 0.00 0.00 86 1010.6
20180524065854 55 225 0.0 0.0 0.00 0.00 0.00 86 1010.8
20180524065553 55 225 0.0 0.0 0.00 0.00 0.00 86 1010.8
20180524065255 55 225 0.0 0.0 0.00 0.00 0.00 86 1010.8
20180524064951 55 225 0.0 0.0 0.00 0.00 0.00 85 1010.8
20180524064347 54 225 0.0 0.0 0.00 0.00 0.00 85 1010.9
20180524064046 54 225 0.0 0.0 0.00 0.00 0.00 85 1010.9
20180524063745 54 225 0.0 0.0 0.00 0.00 0.00 85 1011.0
20180524063444 54 225 0.0 0.0 0.00 0.00 0.00 85 1010.9
20180524063251 54 225 0.0 0.0 0.00 0.00 0.00 85 1011.0
20180524062842 54 225 0.0 0.0 0.00 0.00 0.00 85 1011.0
20180524062541 54 225 0.0 0.0 0.00 0.00 0.00 85 1010.9
20180524062239 54 225 0.0 0.0 0.00 0.00 0.00 85 1010.8
20180524061940 53 225 0.0 0.0 0.00 0.00 0.00 85 1010.7
20180524061637 53 225 0.0 2.0 0.00 0.00 0.00 85 1010.9
20180524061337 53 270 2.0 2.0 0.00 0.00 0.00 85 1010.9
20180524061037 53 225 0.0 0.0 0.00 0.00 0.00 85 1011.0
20180524060736 53 225 0.0 1.0 0.00 0.00 0.00 84 1011.0
20180524060432 53 225 0.0 0.0 0.00 0.00 0.00 84 1011.0
20180524060133 53 225 0.0 0.0 0.00 0.00 0.00 84 1011.0
20180524055531 53 225 0.0 0.0 0.00 0.00 0.00 83 1010.8
20180524055228 53 225 0.0 0.0 0.00 0.00 0.00 83 1010.8
20180524054929 53 225 0.0 0.0 0.00 0.00 0.00 83 1010.9
20180524054626 53 225 0.0 0.0 0.00 0.00 0.00 83 1010.9
20180524053725 53 225 0.0 0.0 0.00 0.00 0.00 83 1011.0
20180524053421 53 225 0.0 0.0 0.00 0.00 0.00 83 1010.8
20180524053122 53 225 0.0 0.0 0.00 0.00 0.00 82 1010.8
20180524052819 53 225 0.0 0.0 0.00 0.00 0.00 83 1010.9
20180524052212 53 252 1.0 3.0 0.00 0.00 0.00 83 1010.7
20180524051914 53 254 1.0 3.0 0.00 0.00 0.00 82 1010.6
20180524051613 53 270 1.0 3.0 0.00 0.00 0.00 82 1010.6
20180524051312 53 256 1.0 2.0 0.00 0.00 0.00 82 1010.6
20180524051010 53 267 1.0 2.0 0.00 0.00 0.00 82 1010.4
20180524050706 54 225 0.0 1.0 0.00 0.00 0.00 82 1010.5
20180524045805 54 254 1.0 2.0 0.00 0.00 0.00 81 1010.4
20180524045204 54 270 3.0 3.0 0.00 0.00 0.00 80 1010.4
20180524044901 54 254 1.0 2.0 0.00 0.00 0.00 81 1010.2
20180524044559 54 238 1.0 3.0 0.00 0.00 0.00 80 1010.2
20180524044258 54 258 1.0 3.0 0.00 0.00 0.00 80 1010.1
20180524043957 54 232 2.0 2.0 0.00 0.00 0.00 80 1010.1
20180524043657 54 247 1.0 3.0 0.00 0.00 0.00 79 1010.0
20180524043354 54 252 1.0 3.0 0.00 0.00 0.00 80 1009.9
20180524042752 54 265 2.0 3.0 0.00 0.00 0.00 79 1009.8
20180524042453 54 252 1.0 3.0 0.00 0.00 0.00 79 1009.8
20180524042151 54 265 3.0 4.0 0.00 0.00 0.00 79 1009.8
20180524041851 54 270 2.0 4.0 0.00 0.00 0.00 79 1009.6
20180524041550 54 270 2.0 2.0 0.00 0.00 0.00 78 1009.7
20180524041248 54 265 1.0 1.0 0.00 0.00 0.00 78 1009.5
20180524040947 55 225 0.0 1.0 0.00 0.00 0.00 77 1009.7
20180524040646 55 247 0.0 2.0 0.00 0.00 0.00 77 1009.6
20180524040044 55 225 0.0 1.0 0.00 0.00 0.00 76 1009.4
20180524035741 55 225 0.0 0.0 0.00 0.00 0.00 76 1009.3
20180524035440 55 225 0.0 1.0 0.00 0.00 0.00 76 1009.3
20180524035139 55 225 0.0 0.0 0.00 0.00 0.00 75 1009.2
20180524034838 55 225 0.0 1.0 0.00 0.00 0.00 74 1009.2
20180524034539 55 225 0.0 1.0 0.00 0.00 0.00 74 1009.0
20180524034235 56 229 0.0 0.0 0.00 0.00 0.00 74 1009.1
20180524033934 56 227 0.0 0.0 0.00 0.00 0.00 73 1009.1
20180524033033 57 225 0.0 0.0 0.00 0.00 0.00 71 1009.1
20180524032730 57 225 0.0 0.0 0.00 0.00 0.00 71 1009.0
20180524032429 57 225 0.0 0.0 0.00 0.00 0.00 71 1009.0
20180524032128 58 225 0.0 0.0 0.00 0.00 0.00 71 1008.9
20180524031828 58 225 0.0 0.0 0.00 0.00 0.00 70 1008.8
20180524031527 58 225 0.0 0.0 0.00 0.00 0.00 69 1008.9
20180524031224 59 213 0.0 0.0 0.00 0.00 0.00 68 1008.9
20180524030927 59 225 0.0 0.0 0.00 0.00 0.00 68 1008.9
20180524030626 60 209 0.0 1.0 0.00 0.00 0.00 68 1008.8
20180524030321 60 245 0.0 0.0 0.00 0.00 0.00 67 1008.8
20180524030022 61 227 0.0 1.0 0.00 0.00 0.00 67 1009.0
20180524025719 61 227 1.0 2.0 0.00 0.00 0.00 66 1008.8
20180524025418 62 236 0.0 2.0 0.00 0.00 0.00 66 1008.6
20180524024816 63 232 0.0 2.0 0.00 0.00 0.00 65 1008.5
20180524024213 64 225 0.0 2.0 0.00 0.00 0.00 64 1008.6
20180524023916 64 231 0.0 3.0 0.00 0.00 0.00 64 1008.5
20180524023613 64 267 1.0 3.0 0.00 0.00 0.00 63 1008.5
20180524023310 65 218 0.0 1.0 0.00 0.00 0.00 63 1008.4
20180524023009 65 231 0.0 4.0 0.00 0.00 0.00 63 1008.5
20180524022712 66 245 1.0 3.0 0.00 0.00 0.00 62 1008.8
20180524022408 66 242 2.0 3.0 0.00 0.00 0.00 63 1008.7
20180524021805 66 225 0.0 5.0 0.00 0.00 0.00 62 1008.5
20180524021202 67 236 0.0 5.0 0.00 0.00 0.00 62 1008.3
20180524020902 67 220 0.0 4.0 0.00 0.00 0.00 62 1008.4
20180524020613 67 176 1.0 3.0 0.00 0.00 0.00 61 1008.4
20180524020301 67 220 1.0 3.0 0.00 0.00 0.00 62 1008.3
20180524020001 67 227 0.0 4.0 0.00 0.00 0.00 61 1008.3
20180524015658 67 230 0.0 6.0 0.00 0.00 0.00 62 1008.3
20180524015358 67 238 3.0 6.0 0.00 0.00 0.00 61 1008.2
20180524015055 67 225 1.0 7.0 0.00 0.00 0.00 61 1008.1
20180524014454 67 252 4.0 5.0 0.00 0.00 0.00 60 1008.1
20180524014151 68 230 3.0 6.0 0.00 0.00 0.00 60 1008.1
20180524013852 68 234 3.0 8.0 0.00 0.00 0.00 60 1008.0
20180524013551 68 258 6.0 8.0 0.00 0.00 0.00 60 1008.0
20180524013250 69 252 4.0 8.0 0.00 0.00 0.00 60 1008.1
20180524012949 69 258 7.0 8.0 0.00 0.00 0.00 59 1007.9
20180524012345 69 227 3.0 10.0 0.00 0.00 0.00 59 1008.0
20180524012044 69 239 4.0 5.0 0.00 0.00 0.00 59 1008.2
20180524011441 69 242 6.0 7.0 0.00 0.00 0.00 59 1008.1
20180524011145 69 225 3.0 4.0 0.00 0.00 0.00 59 1008.0
20180524010841 69 215 1.0 6.0 0.00 0.00 0.00 59 1008.1
20180524010538 70 191 4.0 9.0 0.00 0.00 0.00 58 1008.3
20180524010237 70 265 7.0 8.0 0.00 0.00 0.00 59 1007.9
20180524005938 70 240 3.0 8.0 0.00 0.00 0.00 58 1008.1
20180524005637 70 240 8.0 9.0 0.00 0.00 0.00 58 1007.9
20180524005335 70 249 6.0 9.0 0.00 0.00 0.00 58 1008.0
20180524005036 70 252 4.0 9.0 0.00 0.00 0.00 58 1008.0
20180524004735 71 252 6.0 9.0 0.00 0.00 0.00 57 1008.1
20180524004132 71 254 6.0 10.0 0.00 0.00 0.00 57 1008.0
20180524003830 72 232 4.0 9.0 0.00 0.00 0.00 57 1008.0
20180524003226 72 272 9.0 9.0 0.00 0.00 0.00 56 1007.9
20180524002927 73 191 5.0 11.0 0.00 0.00 0.00 55 1007.6
20180524002023 75 270 15.0 16.0 0.00 0.00 0.00 53 1007.8
20180524001720 75 263 8.0 10.0 0.00 0.00 0.00 54 1008.0
20180524001120 76 230 6.0 9.0 0.00 0.00 0.00 54 1008.0
20180524000819 76 222 7.0 7.0 0.00 0.00 0.00 54 1008.0
20180524000215 76 253 2.0 7.0 0.00 0.00 0.00 54 1007.9
20180523235914 76 254 5.0 6.0 0.00 0.00 0.00 54 1007.9
20180523235012 76 236 1.0 7.0 0.00 0.00 0.00 54 1007.9
20180523234408 76 245 2.0 7.0 0.00 0.00 0.00 54 1007.9
20180523234109 76 243 4.0 8.0 0.00 0.00 0.00 54 1007.8
20180523233806 76 244 5.0 7.0 0.00 0.00 0.00 54 1007.9
20180523233507 76 185 3.0 7.0 0.00 0.00 0.00 54 1007.9
20180523233204 76 245 6.0 6.0 0.00 0.00 0.00 55 1007.9
20180523232903 76 220 3.0 7.0 0.00 0.00 0.00 55 1007.7
20180523232604 76 230 0.0 5.0 0.00 0.00 0.00 55 1007.7
20180523232302 76 247 5.0 8.0 0.00 0.00 0.00 55 1007.8
20180523231701 76 256 4.0 8.0 0.00 0.00 0.00 55 1007.9
20180523231056 76 272 2.0 10.0 0.00 0.00 0.00 54 1007.9
20180523230757 76 265 7.0 8.0 0.00 0.00 0.00 55 1007.8
20180523230457 76 222 7.0 7.0 0.00 0.00 0.00 55 1008.0
20180523230154 76 235 3.0 7.0 0.00 0.00 0.00 55 1008.1
20180523225853 76 255 4.0 7.0 0.00 0.00 0.00 55 1008.0
20180523225551 76 245 5.0 8.0 0.00 0.00 0.00 55 1008.0
20180523225251 76 225 3.0 6.0 0.00 0.00 0.00 56 1008.1
20180523224950 76 192 2.0 5.0 0.00 0.00 0.00 55 1008.3
20180523224647 76 276 4.0 9.0 0.00 0.00 0.00 55 1008.1
20180523224346 76 230 5.0 6.0 0.00 0.00 0.00 55 1008.1
20180523224049 76 252 3.0 7.0 0.00 0.00 0.00 56 1008.1
20180523224047 76 252 3.0 7.0 0.00 0.00 0.00 56 1008.1
20180523223746 76 252 6.0 8.0 0.00 0.00 0.00 55 1008.2
20180523223445 76 272 5.0 8.0 0.00 0.00 0.00 55 1008.2
20180523223144 76 266 3.0 6.0 0.00 0.00 0.00 56 1008.2
20180523222843 76 254 5.0 5.0 0.00 0.00 0.00 56 1008.2
20180523222540 76 270 6.0 9.0 0.00 0.00 0.00 56 1008.3
20180523222238 75 240 5.0 7.0 0.00 0.00 0.00 57 1008.4
20180523221937 75 173 1.0 9.0 0.00 0.00 0.00 58 1008.4
20180523221636 75 189 2.0 6.0 0.00 0.00 0.00 58 1008.5
20180523221337 74 245 6.0 7.0 0.00 0.00 0.00 57 1008.4
20180523221034 74 249 2.0 7.0 0.00 0.00 0.00 58 1008.3
20180523220735 74 220 2.0 9.0 0.00 0.00 0.00 58 1008.4
20180523220432 74 256 7.0 7.0 0.00 0.00 0.00 58 1008.4
20180523220133 74 207 5.0 8.0 0.00 0.00 0.00 58 1008.5
20180523215830 74 234 5.0 8.0 0.00 0.00 0.00 58 1008.4
20180523215530 74 252 6.0 9.0 0.00 0.00 0.00 58 1008.4
20180523215228 73 222 5.0 11.0 0.00 0.00 0.00 58 1008.4
20180523214928 73 257 5.0 9.0 0.00 0.00 0.00 58 1008.4
20180523214627 73 262 7.0 10.0 0.00 0.00 0.00 58 1008.4
20180523214025 73 274 6.0 10.0 0.00 0.00 0.00 58 1008.4
20180523213423 73 245 7.0 13.0 0.00 0.00 0.00 59 1008.5
20180523212518 73 261 6.0 11.0 0.00 0.00 0.00 58 1008.6
20180523212216 73 276 9.0 9.0 0.00 0.00 0.00 59 1008.6
20180523211917 73 272 9.0 9.0 0.00 0.00 0.00 59 1008.8
20180523211616 73 243 4.0 8.0 0.00 0.00 0.00 58 1008.8
20180523211315 73 254 5.0 8.0 0.00 0.00 0.00 58 1008.8
20180523211013 74 265 6.0 8.0 0.00 0.00 0.00 58 1008.7
20180523210713 74 249 3.0 7.0 0.00 0.00 0.00 58 1008.8
20180523210111 74 265 6.0 10.0 0.00 0.00 0.00 58 1008.7
20180523205809 75 249 4.0 7.0 0.00 0.00 0.00 58 1008.7
20180523205506 75 274 7.0 9.0 0.00 0.00 0.00 58 1008.8
20180523205208 75 258 4.0 6.0 0.00 0.00 0.00 58 1008.8
20180523204904 75 225 4.0 6.0 0.00 0.00 0.00 58 1008.8
20180523204605 75 263 4.0 6.0 0.00 0.00 0.00 58 1008.8
20180523204302 75 258 6.0 7.0 0.00 0.00 0.00 58 1008.8
20180523204003 75 258 5.0 7.0 0.00 0.00 0.00 58 1008.8
20180523203700 75 215 3.0 4.0 0.00 0.00 0.00 59 1008.9
20180523203058 74 222 0.0 7.0 0.00 0.00 0.00 59 1008.9
20180523202758 74 235 2.0 5.0 0.00 0.00 0.00 60 1009.0
20180523202457 74 234 1.0 4.0 0.00 0.00 0.00 60 1008.9
20180523202156 74 193 3.0 4.0 0.00 0.00 0.00 61 1009.0
20180523201855 73 0 1.0 3.0 0.00 0.00 0.00 60 1008.9
20180523201554 73 252 1.0 3.0 0.00 0.00 0.00 61 1008.9
20180523201253 73 261 2.0 3.0 0.00 0.00 0.00 61 1008.9
20180523200952 73 225 0.0 4.0 0.00 0.00 0.00 62 1009.0
20180523200649 72 252 4.0 4.0 0.00 0.00 0.00 62 1009.0
20180523200348 72 225 1.0 4.0 0.00 0.00 0.00 63 1009.2
20180523200047 72 204 2.0 4.0 0.00 0.00 0.00 63 1009.1
20180523195444 72 165 3.0 3.0 0.00 0.00 0.00 64 1009.0
20180523195145 71 177 0.0 3.0 0.00 0.00 0.00 64 1009.1
20180523194543 71 213 0.0 1.0 0.00 0.00 0.00 65 1009.3
20180523194240 70 105 1.0 2.0 0.00 0.00 0.00 65 1009.3
20180523193638 70 195 0.0 1.0 0.00 0.00 0.00 65 1009.2
20180523193338 70 202 0.0 2.0 0.00 0.00 0.00 66 1009.1
20180523193038 70 225 1.0 1.0 0.00 0.00 0.00 67 1009.2
20180523192433 70 249 2.0 3.0 0.00 0.00 0.00 66 1009.3
20180523191834 69 202 1.0 3.0 0.00 0.00 0.00 67 1009.3
20180523191229 69 225 0.0 2.0 0.00 0.00 0.00 68 1009.4
20180523190930 69 213 0.0 1.0 0.00 0.00 0.00 68 1009.5
20180523190627 69 175 0.0 1.0 0.00 0.00 0.00 69 1009.4
20180523185723 68 186 2.0 4.0 0.00 0.00 0.00 70 1009.5
20180523185424 68 286 0.0 4.0 0.00 0.00 0.00 70 1009.5
20180523185123 67 209 0.0 2.0 0.00 0.00 0.00 72 1009.4
20180523184820 67 198 0.0 2.0 0.00 0.00 0.00 72 1009.3
20180523184519 67 234 0.0 2.0 0.00 0.00 0.00 72 1009.3
20180523183917 66 184 2.0 3.0 0.00 0.00 0.00 73 1009.5
20180523183618 66 235 1.0 2.0 0.00 0.00 0.00 73 1009.6
20180523183317 66 225 0.0 2.0 0.00 0.00 0.00 73 1009.5
20180523183015 65 229 0.0 3.0 0.00 0.00 0.00 73 1009.4
20180523182712 65 234 1.0 2.0 0.00 0.00 0.00 73 1009.3
20180523182411 65 225 0.0 3.0 0.00 0.00 0.00 73 1009.4
20180523182112 65 249 1.0 2.0 0.00 0.00 0.00 74 1009.4
20180523181809 65 227 2.0 6.0 0.00 0.00 0.00 74 1009.3
20180523181207 65 285 2.0 4.0 0.00 0.00 0.00 74 1009.5
20180523180906 65 270 4.0 4.0 0.00 0.00 0.00 74 1009.2
20180523180606 65 276 3.0 5.0 0.00 0.00 0.00 74 1009.4
20180523180305 65 243 2.0 4.0 0.00 0.00 0.00 74 1009.5
20180523180003 65 227 3.0 5.0 0.00 0.00 0.00 75 1009.4
20180523175402 64 265 3.0 3.0 0.00 0.00 0.00 76 1009.3
20180523175101 64 270 1.0 3.0 0.00 0.00 0.00 76 1009.6
20180523174759 64 295 2.0 6.0 0.00 0.00 0.00 76 1009.5
20180523174157 63 227 1.0 5.0 0.00 0.00 0.00 77 1009.6
20180523173857 63 267 3.0 5.0 0.00 0.00 0.00 77 1009.4
20180523173555 63 245 1.0 4.0 0.00 0.00 0.00 77 1009.4
20180523173254 63 249 3.0 4.0 0.00 0.00 0.00 77 1009.5
20180523172953 62 227 0.0 4.0 0.00 0.00 0.00 78 1009.5
20180523172652 62 238 1.0 4.0 0.00 0.00 0.00 78 1009.5
20180523172050 62 247 1.0 5.0 0.00 0.00 0.00 78 1009.3
20180523171747 62 247 1.0 7.0 0.00 0.00 0.00 78 1009.3
20180523171446 62 274 7.0 7.0 0.00 0.00 0.00 79 1009.3
20180523171147 62 240 0.0 5.0 0.00 0.00 0.00 79 1009.2
20180523170845 62 267 2.0 3.0 0.00 0.00 0.00 79 1009.4
20180523170243 62 270 3.0 5.0 0.00 0.00 0.00 79 1009.2
20180523165940 62 270 3.0 4.0 0.00 0.00 0.00 80 1009.4
20180523165641 62 263 1.0 5.0 0.00 0.00 0.00 80 1009.5
20180523165342 62 270 4.0 4.0 0.00 0.00 0.00 80 1009.1
20180523165037 62 243 2.0 4.0 0.00 0.00 0.00 81 1009.5
20180523164736 62 252 1.0 4.0 0.00 0.00 0.00 81 1009.2
20180523164437 62 261 2.0 3.0 0.00 0.00 0.00 81 1009.3
20180523164134 61 236 0.0 3.0 0.00 0.00 0.00 82 1009.2
20180523163232 61 240 1.0 5.0 0.00 0.00 0.00 82 1009.1
20180523162932 61 195 0.0 3.0 0.00 0.00 0.00 83 1009.3
20180523162324 60 255 3.0 4.0 0.00 0.00 0.00 83 1009.1
20180523162024 60 234 1.0 4.0 0.00 0.00 0.00 82 1009.1
20180523160817 60 249 2.0 3.0 0.00 0.00 0.00 83 1009.0
20180523155614 60 270 3.0 4.0 0.00 0.00 0.00 84 1008.9
20180523155313 60 240 1.0 3.0 0.00 0.00 0.00 84 1009.0
20180523155012 59 225 0.0 2.0 0.00 0.00 0.00 85 1009.0
20180523153807 59 247 2.0 2.0 0.00 0.00 0.00 85 1008.8
20180523153205 58 238 1.0 2.0 0.00 0.00 0.00 86 1008.8
20180523152902 58 225 0.0 3.0 0.00 0.00 0.00 86 1008.8
20180523152302 58 230 1.0 2.0 0.00 0.00 0.00 86 1008.9
20180523151959 58 252 1.0 1.0 0.00 0.00 0.00 86 1008.9
20180523151400 57 240 1.0 1.0 0.00 0.00 0.00 86 1008.9
20180523151056 57 231 0.0 1.0 0.00 0.00 0.00 86 1008.9
20180523150754 57 225 0.0 1.0 0.00 0.00 0.00 87 1008.9
20180523150456 56 227 0.0 1.0 0.00 0.00 0.00 87 1008.8
20180523150153 56 236 0.0 2.0 0.00 0.00 0.00 87 1008.8
20180523145853 56 234 1.0 2.0 0.00 0.00 0.00 86 1008.8
20180523145851 56 234 1.0 2.0 0.00 0.00 0.00 86 1008.8
20180523145252 56 225 0.0 3.0 0.00 0.00 0.00 87 1008.7
20180523144950 56 270 3.0 4.0 0.00 0.00 0.00 87 1008.6
20180523144647 56 247 1.0 4.0 0.00 0.00 0.00 86 1008.7
20180523144347 56 247 1.0 3.0 0.00 0.00 0.00 86 1008.7
20180523144046 56 238 1.0 3.0 0.00 0.00 0.00 86 1008.5
20180523143444 56 249 3.0 3.0 0.00 0.00 0.00 86 1008.7
20180523143143 56 237 1.0 3.0 0.00 0.00 0.00 86 1008.6
20180523142842 56 249 2.0 4.0 0.00 0.00 0.00 86 1008.7
20180523142541 55 258 3.0 4.0 0.00 0.00 0.00 85 1008.5
20180523142239 55 238 2.0 4.0 0.00 0.00 0.00 85 1008.6
20180523141940 55 249 2.0 4.0 0.00 0.00 0.00 85 1008.5
20180523141937 55 249 2.0 4.0 0.00 0.00 0.00 85 1008.5
20180523141637 55 247 3.0 3.0 0.00 0.00 0.00 85 1008.5
20180523141033 55 247 2.0 3.0 0.00 0.00 0.00 85 1008.4
20180523140433 55 249 2.0 5.0 0.00 0.00 0.00 85 1008.4
20180523140131 55 270 4.0 5.0 0.00 0.00 0.00 85 1008.3
20180523135529 55 256 3.0 3.0 0.00 0.00 0.00 85 1008.1
20180523135228 55 238 1.0 3.0 0.00 0.00 0.00 85 1008.2
20180523134927 55 249 2.0 3.0 0.00 0.00 0.00 86 1008.0
20180523134325 55 263 3.0 3.0 0.00 0.00 0.00 85 1008.1
20180523134323 55 263 3.0 3.0 0.00 0.00 0.00 85 1008.1
20180523134022 55 249 0.0 2.0 0.00 0.00 0.00 86 1008.1
20180523133722 55 267 1.0 3.0 0.00 0.00 0.00 86 1008.0
20180523133422 55 263 2.0 4.0 0.00 0.00 0.00 86 1008.0
20180523133121 55 270 3.0 4.0 0.00 0.00 0.00 86 1007.8
20180523132819 55 225 0.0 3.0 0.00 0.00 0.00 86 1007.8
20180523132518 55 270 3.0 3.0 0.00 0.00 0.00 86 1007.8
20180523132216 55 245 1.0 2.0 0.00 0.00 0.00 86 1007.8
20180523131916 55 229 1.0 1.0 0.00 0.00 0.00 86 1007.7
20180523131615 55 225 0.0 1.0 0.00 0.00 0.00 87 1007.6
20180523131013 55 270 2.0 3.0 0.00 0.00 0.00 87 1007.5
20180523130712 55 270 2.0 3.0 0.00 0.00 0.00 87 1007.4
20180523130409 55 270 3.0 3.0 0.00 0.00 0.00 87 1007.5
20180523130109 55 240 1.0 1.0 0.00 0.00 0.00 88 1007.5
20180523125809 55 225 0.0 1.0 0.00 0.00 0.00 87 1007.4
20180523125206 54 225 0.0 0.0 0.00 0.00 0.00 87 1007.4
20180523124904 54 225 0.0 0.0 0.00 0.00 0.00 88 1007.4
20180523124303 54 225 0.0 0.0 0.00 0.00 0.00 88 1007.4
20180523124002 54 225 0.0 0.0 0.00 0.00 0.00 87 1007.3
20180523123359 54 180 0.0 0.0 0.00 0.00 0.00 88 1007.2
20180523123058 54 180 0.0 0.0 0.00 0.00 0.00 88 1007.4
20180523122458 54 207 0.0 1.0 0.00 0.00 0.00 88 1007.3
20180523122156 54 180 0.0 1.0 0.00 0.00 0.00 88 1007.3
20180523121853 54 135 1.0 2.0 0.00 0.00 0.00 88 1007.1
20180523121553 54 105 1.0 2.0 0.00 0.00 0.00 88 1007.3
20180523121251 53 117 1.0 2.0 0.00 0.00 0.00 88 1007.3
20180523120949 53 110 1.0 2.0 0.00 0.00 0.00 88 1007.2
20180523120648 53 135 0.0 2.0 0.00 0.00 0.00 88 1007.2
20180523120348 53 90 1.0 1.0 0.00 0.00 0.00 88 1007.2
20180523120046 53 90 0.0 1.0 0.00 0.00 0.00 88 1007.2
20180523115746 53 90 0.0 0.0 0.00 0.00 0.00 88 1007.2
20180523115444 53 90 0.0 0.0 0.00 0.00 0.00 89 1007.2
20180523115144 53 90 0.0 0.0 0.00 0.00 0.00 88 1007.1
20180523114843 53 90 0.0 2.0 0.00 0.00 0.00 89 1007.2
20180523114239 53 45 1.0 2.0 0.00 0.00 0.00 89 1007.0
20180523113938 53 162 0.0 2.0 0.00 0.00 0.00 89 1007.1